الصفحة الرئيسية
METAR-TAF:

METAR-TAF

مطار :

Chandler Municipal Airport

Chandler, أريزونا, الولايات المتحدة

دائرة عرض: 33-16-09N, خط طول: 111-48-40W, ارتفاع: 379 متر

مراقبة الطقس الحالي

تاريخ ووقت الإصدار 9 دقيقة قبل الساعة 12:47UTC
رياح هادئة
درجة الحرارة 6°درجة مئوية
الرطوبة 100%
ضغط 1020 hPa
الرؤية: 16.1 كم
سماء صافية

METAR: KCHD 251247Z 00000KT 10SM SKC 06/06 A3011

زمن: 05:56 (12:56 UTC)


TAF: مفقودة

أرصاد الطقس والتوقعات من أكثر من 4000 مطار (تقارير الطقس للمطار METAR والتنبؤ بالطقس بالمطارTAF).

المحطات المتاحة هي النقط الصفراء والحمراء على الخريطة.

حرك المؤشر فوق النقطة لمعرفة اسم المحطة.

ثم انقر لمعرفة أرصاد وتوقعات الطقس.

لتغيير الخارطة: اضغط على الأزرار الخضراء مع رمز الصليب الأسود للتكبير. على الزر الأخضر مع شرطة للتصغير، أو على الأسهم الخضراء للخرائط المجاورة.


METAR-TAF: